Location: Sperry Observatory
(40.6664°N, 74.3236°W)
Time: 11:32:12
(UTC-04:00)

UOSAT-12 - Visible Passes

Search period start: 21 April 2014 00:00
Search period end: 01 May 2014 00:00
Orbit: 598 x 661 km, 64.6° (Epoch: 21 April)

Date Brightness Start Highest point End Pass type
(mag) Time Alt. Az. Time Alt. Az. Time Alt. Az.
21 Apr 10.0 00:45:23 10° N 00:47:18 14° NNE 00:47:18 14° NNE visible
21 Apr 9.8 02:23:59 10° NNW 02:24:36 14° NNW 02:24:36 14° NNW visible
22 Apr 9.7 01:05:04 10° N 01:06:54 18° N 01:06:54 18° N visible
23 Apr 9.7 01:25:17 10° NNW 01:26:35 18° NNW 01:26:35 18° NNW visible
24 Apr 9.8 00:06:52 10° N 00:09:00 16° NNE 00:09:00 16° NNE visible
24 Apr 9.9 01:45:49 10° NW 01:46:19 13° NW 01:46:19 13° NW visible
25 Apr 9.5 00:26:45 10° NNW 00:28:47 21° N 00:28:47 21° N visible
25 Apr 9.9 23:09:26 10° NNE 23:10:32 11° NE 23:11:18 10° NE visible
26 Apr 9.5 00:47:02 10° NNW 00:48:37 21° NNW 00:48:37 21° NNW visible
26 Apr 9.4 23:28:25 10° N 23:31:09 18° NNE 23:31:09 18° NNE visible
27 Apr 9.8 01:07:40 10° NW 01:08:29 15° NW 01:08:29 15° NW visible
27 Apr 9.1 23:48:26 10° NNW 23:51:03 26° N 23:51:03 26° N visible
28 Apr 9.6 22:30:30 10° N 22:32:31 12° NE 22:33:38 12° NE visible
29 Apr 9.1 00:08:49 10° NNW 00:10:58 27° NNW 00:10:58 27° NNW visible
29 Apr 9.0 22:50:00 10° N 22:53:36 22° NE 22:53:36 22° NE visible
30 Apr 9.5 00:29:32 10° NW 00:30:55 19° NW 00:30:55 19° NW visible
30 Apr 8.4 23:10:07 10° NNW 23:13:35 36° NNE 23:13:35 36° NNE visible
